This is the latest recevied weather packets stored in our database for station/object NK2J. If no packets are shown the sender has not sent any weather packets the latest 10 day(s).
| Time | Temp. | Humidity | Pressure | Rain* | Wind** | Luminosity | Snow |
|---|---|---|---|---|---|---|---|
| 1777814821 | 25° C | 32% | 1013.4 hPa | 0 mm | - | 34 W/m² | - |
| 1777814518 | 25° C | 32% | 1013.7 hPa | 0 mm | - | 30 W/m² | - |
| 1777814215 | 25° C | 32% | 1013.7 hPa | 0 mm | - | 25 W/m² | - |
| 1777813912 | 25° C | 32% | 1013.5 hPa | 0 mm | - | 20 W/m² | - |
| 1777813609 | 25° C | 32% | 1013.4 hPa | 0 mm | - | 17 W/m² | - |
| 1777813307 | 25° C | 32% | 1013.4 hPa | 0 mm | - | 15 W/m² | - |
| 1777813004 | 25° C | 32% | 1013.2 hPa | 0 mm | - | 13 W/m² | - |
| 1777812702 | 25° C | 32% | 1013.2 hPa | 0 mm | - | 9 W/m² | - |
| 1777812398 | 25° C | 32% | 1013.2 hPa | 0 mm | - | 6 W/m² | - |
| 1777812097 | 25° C | 32% | 1013.1 hPa | 0 mm | - | 4 W/m² | - |
| 1777811794 | 25° C | 32% | 1013 hPa | 0 mm | - | 2 W/m² | - |
| 1777811492 | 25° C | 32% | 1013.1 hPa | 0 mm | - | 1 W/m² | - |
| 1777811187 | 25° C | 32% | 1012.9 hPa | 0 mm | - | 0 W/m² | - |
| 1777810885 | 25° C | 32% | 1013 hPa | 0 mm | - | 0 W/m² | - |
| 1777810581 | 25° C | 32% | 1013 hPa | 0 mm | - | 0 W/m² | - |
| 1777810279 | 25° C | 31% | 1013 hPa | 0 mm | - | 0 W/m² | - |
| 1777809973 | 25° C | 31% | 1012.7 hPa | 0 mm | - | 0 W/m² | - |
| 1777809672 | 25° C | 31% | 1013 hPa | 0 mm | - | 0 W/m² | - |
| 1777809369 | 25° C | 31% | 1013.1 hPa | 0 mm | - | 0 W/m² | - |
| 1777809067 | 25° C | 31% | 1013.2 hPa | 0 mm | - | 0 W/m² | - |
| 1777808764 | 25° C | 31% | 1012.9 hPa | 0 mm | - | 0 W/m² | - |
| 1777808460 | 25° C | 31% | 1012.7 hPa | 0 mm | - | 0 W/m² | - |
| 1777808158 | 25.56° C | 31% | 1012.9 hPa | 0 mm | - | 0 W/m² | - |
| 1777807856 | 25.56° C | 31% | 1012.7 hPa | 0 mm | - | 0 W/m² | - |
| 1777807554 | 25.56° C | 31% | 1012.7 hPa | 0 mm | - | 0 W/m² | - |
* Rain latest hour (hover to see other rain measurements)
** Current wind speed in m/s (hover to see current wind gust speed)